Location: Songkhla
(7.2000°N, 100.6000°E)
Time: 06:36:40
(UTC+07:00)

Orbus 7S - Pass Details

Date: 16 April 2026
Orbit: 207 x 8230 km, 27.3° (Epoch: 17 May)

Event Time Altitude Azimuth Distance (km) Brightness Sun altitude
Rises 19:15:00 0° 244° (WSW) 3,378 8.2 -12.7°
Reaches altitude 10° 19:18:31 10° 245° (WSW) 1,688 6.6 -13.6°
Maximum altitude 19:21:45 74° 330° (NNW) 302 2.1 -14.4°
Enters shadow 19:22:23 37° 48° (NE) 420 2.4 -14.5°
